Weather History for Stanton, MN

Change the Weather History Date:

Thursday, July 18, 2013

  Actual Average (KLVN) Record (KLVN)
Temperature  
Mean Temperature 82 °F -  
Max Temperature 91 °F 84 °F 97 °F (1964)
Min Temperature 72 °F 63 °F 50 °F (1984)
Cooling Degree Days 16    
Growing Degree Days 32 (Base 50)    
Moisture  
Dew Point 69 °F    
Average Humidity 65    
Maximum Humidity 87    
Minimum Humidity 44    
Precipitation  
Precipitation 0.00 in - - ()
Sea Level Pressure  
Sea Level Pressure 29.97 in    
Wind  
Wind Speed 8 mph (SSW)    
Max Wind Speed 20 mph    
Max Gust Speed 26 mph    
Visibility 10 miles    
Events      
Averages and records for this station are not official NWS values.
T = Trace of Precipitation, MM = Missing Value Source: NWS Daily Summary

Daily Weather History Graph

Daily Weather History Graph

Search for Another Location

Airport:

Trip Planner

Search our weather history database for the weather conditions in past years. The results will help you decide how hot, cold, wet, or windy it might be!

Date:

Astronomy

Jul. 18, 2013 Rise Set
Actual Time 5:44 AM CDT 8:51 PM CDT
Civil Twilight 5:09 AM CDT 9:26 PM CDT
Nautical Twilight 4:24 AM CDT 10:11 PM CDT
Astronomical Twilight 3:29 AM CDT 11:05 PM CDT
Moon 4:47 PM CDT (7/18) 1:37 AM CDT (7/18)
Length of Visible Light 16h 16m
Length of Day
15h 06m
Waxing Gibbous, 77% of the Moon is Illuminated
Jul 18
Waxing Gibbous
Jul 22
Full
Jul 29
Last Quarter
Aug 6
New
Aug 14
First Quarter

Hourly Weather History & Observations

Time (CDT) Temp. Heat Index Dew Point Humidity Pressure Visibility Wind Dir Wind Speed Gust Speed Precip Events Conditions
12:12 AM 77.7 °F - 70.7 °F 79% 30.13 in 10.0 mi South 4.6 mph - N/A   Clear
12:33 AM 77.0 °F - 70.7 °F 81% 30.12 in 10.0 mi South 6.9 mph - N/A   Clear
12:53 AM 77.0 °F - 70.3 °F 80% 30.12 in 10.0 mi South 4.6 mph - N/A   Clear
1:13 AM 76.1 °F - 70.3 °F 82% 30.12 in 10.0 mi South 4.6 mph - N/A   Clear
1:33 AM 75.6 °F - 70.2 °F 83% 30.12 in 10.0 mi South 4.6 mph - N/A   Clear
1:52 AM 76.1 °F - 70.0 °F 81% 30.12 in 10.0 mi South 3.5 mph - N/A   Clear
2:13 AM 75.4 °F - 69.8 °F 83% 30.11 in 10.0 mi South 3.5 mph - N/A   Clear
2:33 AM 75.4 °F - 69.8 °F 83% 30.11 in 10.0 mi SSW 3.5 mph - N/A   Clear
2:53 AM 73.9 °F - 69.6 °F 86% 30.11 in 10.0 mi South 3.5 mph - N/A   Clear
3:12 AM 75.2 °F - 69.3 °F 82% 30.11 in 10.0 mi South 3.5 mph - N/A   Clear
3:33 AM 74.1 °F - 68.7 °F 83% 30.10 in 10.0 mi SW 3.5 mph - N/A   Clear
3:53 AM 72.9 °F - 68.9 °F 87% 30.10 in 10.0 mi Calm Calm - N/A   Clear
4:12 AM 72.9 °F - 68.9 °F 87% 30.10 in 10.0 mi Calm Calm - N/A   Clear
4:33 AM 73.2 °F - 68.5 °F 85% 30.09 in 10.0 mi South 3.5 mph - N/A   Clear
4:53 AM 73.2 °F - 68.4 °F 85% 30.08 in 10.0 mi SSW 3.5 mph - N/A   Clear
5:12 AM 73.4 °F - 68.2 °F 84% 30.08 in 10.0 mi South 4.6 mph - N/A   Clear
5:33 AM 73.4 °F - 68.2 °F 84% 30.08 in 10.0 mi SSW 3.5 mph - N/A   Clear
5:53 AM 73.6 °F - 68.4 °F 84% 30.08 in 10.0 mi SSW 4.6 mph - N/A   Clear
6:12 AM 73.8 °F - 68.5 °F 84% 30.07 in 10.0 mi SSW 4.6 mph - N/A   Clear
6:33 AM 74.5 °F - 68.9 °F 83% 30.07 in 10.0 mi SSW 3.5 mph - N/A   Clear
6:52 AM 75.4 °F - 69.4 °F 82% 30.07 in 10.0 mi SSW 5.8 mph - N/A   Clear
7:13 AM 76.5 °F - 70.0 °F 80% 30.06 in 10.0 mi SSW 6.9 mph - N/A   Clear
7:33 AM 77.7 °F - 70.3 °F 78% 30.06 in 10.0 mi SSW 9.2 mph - N/A   Clear
7:52 AM 78.8 °F - 70.7 °F 76% 30.05 in 10.0 mi SW 9.2 mph - N/A   Clear
8:13 AM 80.1 °F 83.4 °F 70.7 °F 73% 30.05 in 10.0 mi SSW 8.1 mph - N/A   Clear
8:33 AM 81.3 °F 85.2 °F 70.7 °F 70% 30.04 in 10.0 mi SSW 9.2 mph - N/A   Clear
8:52 AM 82.2 °F 86.6 °F 71.1 °F 69% 30.04 in 10.0 mi SSW 8.1 mph - N/A   Clear
9:13 AM 83.5 °F 88.2 °F 71.2 °F 66% 30.04 in 10.0 mi SW 9.2 mph - N/A   Clear
9:33 AM 84.6 °F 89.1 °F 70.3 °F 62% 30.03 in 10.0 mi SW 11.5 mph - N/A   Clear
9:52 AM 85.5 °F 90.4 °F 70.7 °F 61% 30.03 in 10.0 mi SW 15.0 mph - N/A   Clear
10:13 AM 85.8 °F 90.8 °F 70.3 °F 60% 30.02 in 10.0 mi SW 11.5 mph - N/A   Clear
10:33 AM 86.4 °F 91.1 °F 70.0 °F 58% 30.02 in 10.0 mi SW 16.1 mph - N/A   Clear
10:52 AM 87.1 °F 92.4 °F 70.7 °F 58% 30.01 in 10.0 mi SW 11.5 mph - N/A   Clear
11:13 AM 87.3 °F 92.0 °F 70.0 °F 56% 30.00 in 10.0 mi SW 13.8 mph 19.6 mph N/A   Clear
11:33 AM 87.8 °F 92.6 °F 70.0 °F 55% 30.00 in 10.0 mi SW 15.0 mph 23.0 mph N/A   Clear
11:52 AM 88.3 °F 94.1 °F 70.9 °F 56% 30.00 in 10.0 mi SW 16.1 mph - N/A   Clear
12:13 PM 88.7 °F 93.5 °F 69.6 °F 53% 30.00 in 10.0 mi SW 18.4 mph 23.0 mph N/A   Clear
12:33 PM 89.2 °F 94.5 °F 70.0 °F 53% 29.98 in 10.0 mi SW 15.0 mph 19.6 mph N/A   Clear
12:53 PM 89.8 °F 96.0 °F 71.1 °F 54% 29.98 in 10.0 mi SW 12.7 mph 20.7 mph N/A   Clear
1:13 PM 90.1 °F 95.3 °F 69.8 °F 51% 29.97 in 10.0 mi WSW 13.8 mph - N/A   Clear
1:32 PM 90.0 °F 94.5 °F 69.3 °F 50% 29.96 in 10.0 mi SW 16.1 mph 21.9 mph N/A   Clear
1:53 PM 90.3 °F 94.7 °F 68.7 °F 49% 29.95 in 10.0 mi SW 19.6 mph 26.5 mph N/A   Clear
2:13 PM 90.7 °F 95.0 °F 68.7 °F 48% 29.95 in 10.0 mi SW 16.1 mph 21.9 mph N/A   Clear
2:32 PM 90.9 °F 95.3 °F 68.7 °F 48% 29.94 in 10.0 mi SW 18.4 mph - N/A   Clear
2:53 PM 90.9 °F 95.3 °F 68.9 °F 48% 29.93 in 10.0 mi SW 15.0 mph 20.7 mph N/A   Clear
3:13 PM 91.2 °F 96.5 °F 69.4 °F 49% 29.93 in 10.0 mi SW 13.8 mph - N/A   Clear
3:32 PM 91.4 °F 96.3 °F 69.3 °F 48% 29.92 in 10.0 mi SW 15.0 mph 23.0 mph N/A   Clear
3:53 PM 91.4 °F 94.5 °F 66.9 °F 44% 29.91 in 10.0 mi SW 17.3 mph 25.3 mph N/A   Clear
4:13 PM 91.2 °F 96.0 °F 69.1 °F 48% 29.90 in 10.0 mi SW 18.4 mph - N/A   Clear
4:33 PM 91.0 °F 95.2 °F 68.4 °F 47% 29.89 in 10.0 mi SW 19.6 mph 24.2 mph N/A   Clear
4:53 PM 91.0 °F 95.6 °F 68.7 °F 48% 29.88 in 10.0 mi SSW 16.1 mph 20.7 mph N/A   Clear
5:12 PM 90.7 °F 95.0 °F 68.7 °F 48% 29.87 in 10.0 mi SW 13.8 mph 23.0 mph N/A   Clear
5:33 PM 90.7 °F 95.4 °F 69.3 °F 49% 29.86 in 10.0 mi SSW 11.5 mph 18.4 mph N/A   Clear
5:52 PM 90.5 °F 95.1 °F 68.9 °F 49% 29.86 in 10.0 mi SW 12.7 mph 20.7 mph N/A   Clear
6:13 PM 90.1 °F 94.4 °F 68.5 °F 49% 29.85 in 10.0 mi SW 12.7 mph 20.7 mph N/A   Clear
6:32 PM 89.6 °F 93.9 °F 68.7 °F 50% 29.84 in 10.0 mi SW 15.0 mph 20.7 mph N/A   Clear
6:53 PM 89.1 °F 93.3 °F 68.9 °F 51% 29.83 in 10.0 mi SW 10.4 mph - N/A   Clear
7:13 PM 88.2 °F 92.9 °F 69.4 °F 54% 29.82 in 10.0 mi SW 9.2 mph - N/A   Clear
7:32 PM 87.3 °F 92.0 °F 70.0 °F 56% 29.82 in 10.0 mi SW 9.2 mph - N/A   Clear
7:53 PM 86.2 °F 90.7 °F 69.8 °F 58% 29.82 in 10.0 mi SW 8.1 mph - N/A   Clear
8:13 PM 85.1 °F 89.1 °F 69.1 °F 59% 29.82 in 10.0 mi SW 9.2 mph - N/A   Clear
8:32 PM 84.2 °F 87.9 °F 68.9 °F 60% 29.81 in 10.0 mi SW 9.2 mph - N/A   Clear
8:53 PM 83.7 °F 86.7 °F 68.0 °F 59% 29.82 in 10.0 mi SW 11.5 mph - N/A   Clear
9:13 PM 83.7 °F 86.5 °F 67.3 °F 58% 29.81 in 10.0 mi SSW 9.2 mph - N/A   Clear
9:33 PM 82.9 °F 85.6 °F 67.5 °F 59% 29.81 in 10.0 mi SSW 6.9 mph - N/A   Clear
9:53 PM 82.0 °F 84.9 °F 68.0 °F 62% 29.81 in 10.0 mi SSW 8.1 mph - N/A   Clear
10:13 PM 82.4 °F 85.0 °F 67.3 °F 60% 29.81 in 10.0 mi SSW 11.5 mph 16.1 mph N/A   Clear
10:33 PM 81.7 °F 84.2 °F 67.3 °F 61% 29.81 in 10.0 mi SSW 8.1 mph - N/A   Clear
10:53 PM 81.5 °F 83.9 °F 67.1 °F 61% 29.81 in 10.0 mi SSW 6.9 mph - N/A   Clear
11:12 PM 80.8 °F 83.2 °F 67.1 °F 63% 29.81 in 10.0 mi SSW 8.1 mph - N/A   Clear
11:33 PM 80.8 °F 83.2 °F 67.1 °F 63% 29.80 in 10.0 mi SSW 9.2 mph - N/A   Clear
11:53 PM 80.8 °F 83.2 °F 67.1 °F 63% 29.80 in 10.0 mi SSW 10.4 mph - N/A   Clear